Miscellaneous Local Product
Issued by NWS Hastings, NE

Home | Current Version | Previous Version | Graphics & Text | Print | Product List | Glossary On
Versions: 1 2 3 4 5 6 7 8 9 10 11 12 13 14 15 16 17 18 19 20 21 22 23 24 25 26 27 28 29 30 31 32 33 34 35 36 37 38 39 40 41 42 43 44 45 46 47 48 49 50
068
AXUS43 KGID 290602
MISGRI

GID CWA HOURLY WEATHER ROUNDUP
NATIONAL WEATHER SERVICE HASTINGS NE
100 AM CDT SUN MAY 29 2016

NOTE: "FAIR" INDICATES FEW OR NO CLOUDS BELOW 12,000 FEET WITH NO
SIGNIFICANT WEATHER AND/OR OBSTRUCTIONS TO VISIBILITY.

...SOUTH CENTRAL NEBRASKA...

CITY           SKY/WX    TMP DP  RH WIND       PRES   REMARKS
GRAND ISLAND   MOCLDY    64  56  75 W6G22     30.06R
HASTINGS       CLOUDY    60  55  83 NW7       30.04R
KEARNEY        CLOUDY    64  48  55 NW8       30.06R
ORD            CLOUDY    57  55  93 SW7       30.02R
YORK           CLEAR     59  57  94 CALM      30.03R
AURORA         CLOUDY    61  58  89 E5        30.03R
LEXINGTON      CLOUDY    56  52  85 S5        30.06S
HOLDREGE       CLOUDY    60  51  72 N6        30.06R
HEBRON         CLEAR     60  58  91 CALM      30.01R

...NEBRASKA PANHANDLE...

CITY           SKY/WX    TMP DP  RH WIND       PRES   REMARKS
CHADRON        CLEAR     44  42  93 SE5       30.07S
ALLIANCE       CLEAR     44  42  93 CALM      30.08R
SCOTTSBLUFF    CLEAR     51  45  79 E7        30.09R
SIDNEY         PTCLDY    48  46  93 CALM      30.11R

...WESTERN AND NORTH CENTRAL NEBRASKA...

CITY           SKY/WX    TMP DP  RH WIND       PRES   REMARKS
VALENTINE      CLOUDY    58  52  80 W6        30.03R
AINSWORTH      CLOUDY    57  54  89 CALM      30.02S
ONEILL         PTCLDY    57  55  95 S5        30.01R
BROKEN BOW     MOCLDY    61  52  72 CALM      30.02F
IMPERIAL       CLOUDY    56  51  84 S9        30.06R
NORTH PLATTE   PTCLDY    54  51  90 CALM      30.04R
MCCOOK         CLOUDY    58  52  80 E5        30.07S

...EASTERN NEBRASKA...

CITY           SKY/WX    TMP DP  RH WIND       PRES   REMARKS
NORFOLK        CLEAR     55  53  93 CALM      30.00R
SO SIOUX CITY  CLOUDY    60  57  89 W7        29.97R
TEKAMAH        CLEAR     59  55  87 W7        29.98R
COLUMBUS       CLEAR     55  48  76 CALM      30.02R
ALBION         MOCLDY    53  51  92 CALM      30.02R
OMAHA EPPLEY   CLEAR     61  55  81 W5        29.99R
OFFUTT AFB     CLEAR     58  56  94 N1        29.98R
MILLARD        CLEAR     60  57  87 CALM      29.99R
LINCOLN        CLEAR     59  56  89 CALM      30.01R
NEBRASKA CITY  CLEAR     62  57  84 NW5       30.00R
BEATRICE       CLEAR     60  58  92 NE3       30.01R
FALLS CITY     CLEAR     62  59  90 NW5       30.00R

...NORTHERN KANSAS...

CITY           SKY/WX    TMP DP  RH WIND       PRES   REMARKS
GOODLAND       CLEAR     58  48  69 SW8       30.09S
HILL CITY      CLEAR     59  53  80 W3        30.04S
NORTON         PTCLDY    57  48  72 NW8       30.04R
PHILLIPSBURG   CLEAR     59  55  88 CALM      30.03R
SMITH CENTER   CLEAR     55  54  94 CALM      30.03S
BELOIT         CLEAR     61  55  82 CALM      30.01S
HAYS           CLEAR     59  48  67 CALM      30.04S
RUSSELL        CLEAR     61  56  83 S9        30.02S
CONCORDIA      CLEAR     64  55  72 S10       30.02R
SALINA         CLEAR     60  58  92 S3        30.03R
TOPEKA           N/A     62  59  90 CALM      30.02R



USA.gov is the U.S. government's official web portal to all federal, state and local government web resources and services.